Погода в Канге

Северная Корея     40°58′12″N   126°35′20″E
темп.,
°C
ветер,
м/с
пор.,
м/с
влажн.,
%
обл.,
%
осадки,
мм/ч
давл.,
гПа
погр.,
м
15 августа, пн
пн1500:00+19ю2398100 1.3 100291
03:00+18юв2398100 2.3 1000100
06:00+19ююв2499100 2.1 998129
09:00+20в1299100 6.2 99694
12:00+21юз1399100 31.6 996173
15:00+20всв0199100 39.2 99656
18:00+19зсз11100100 4.6 99795
21:00+18ссз1199100 6.0 99986
16 августа, вт
вт1600:00+18сз1199100 0.4 100074
03:00+18зсз1110088 1.6 100047
06:00+16ссз119958 1.8 100237
09:00+18ю019742 2.4 1004178
12:00+21сз128514 1.9 1004643
15:00+24сз226726 3.1 10031073
18:00+21ссз118268 0.4 100547
21:00+18всв118836 0.4 100614
17 августа, ср
ср1700:00+16вюв119624 0.0 100711
03:00+17всв009399 0.0 100714
06:00+16юв009583 0.3 100814
09:00+18юз0194100 1.3 1009139
12:00+17в1199100 11.3 1009102
15:00+21св118351 13.2 1008451
18:00+22с11840 0.8 1007152
21:00+17юв11950 1.3 100911
18 августа, чт
чт1800:00+16юв1197100 0.0 100916
03:00+15юв119629 0.0 100911
06:00+15юв119699 0.0 100917
09:00+19ю1182100 0.0 1008272
12:00+26ююз025781 0.0 1006996
15:00+27зсз2450100 0.0 10051708
18:00+22з1183100 0.0 100512
21:00+20юв1186100 0.0 100611
19 августа, пт
пт1900:00+19ююв1187100 0.0 100612
03:00+18юз1198100 4.9 100518
06:00+17вюв1198100 3.1 100612
09:00+17юв1197100 3.3 100618
12:00+18з0195100 0.1 1006173
15:00+18сз0195100 0.1 1006177
18:00+18ссз0096100 0.1 100683
21:00+17с009894 0.1 100716